Weather History for St. Joseph, MO

Change the Weather History Date:

Monday, January 21, 2013

  Actual Average Record
Temperature  
Mean Temperature 14 °F 28 °F  
Max Temperature 17 °F 38 °F 68 °F (1933)
Min Temperature 11 °F 18 °F -11 °F (1930)
Degree Days  
Heating Degree Days 51 37  
Month to date heating degree days 736 800  
Since 1 July heating degree days 2832 3013  
Cooling Degree Days 0 0  
Month to date cooling degree days 0 0  
Year to date cooling degree days 0 0  
Moisture  
Dew Point 3 °F    
Average Humidity 62    
Maximum Humidity 84    
Minimum Humidity 40    
Precipitation  
Precipitation T in 0.02 in 0.84 in (1973)
Month to date precipitation 0.30 0.35  
Year to date precipitation 0.30 0.35  
Sea Level Pressure  
Sea Level Pressure 30.46 in    
Wind  
Wind Speed 8 mph (NNW)    
Max Wind Speed 18 mph    
Max Gust Speed 21 mph    
Visibility 10 miles    
Events Snow    
T = Trace of Precipitation, MM = Missing Value Source: NWS Daily Summary

Daily Weather History Graph

Daily Weather History Graph

Search for Another Location

Airport:

Trip Planner

Search our weather history database for the weather conditions in past years. The results will help you decide how hot, cold, wet, or windy it might be!

Date:

Astronomy

Jan. 21, 2013 Rise Set
Actual Time 7:35 AM CST 5:26 PM CST
Civil Twilight 7:06 AM CST 5:55 PM CST
Nautical Twilight 6:33 AM CST 6:28 PM CST
Astronomical Twilight 6:01 AM CST 7:00 PM CST
Moon 1:07 PM CST (1/21) 3:04 AM CST (1/21)
Length of Visible Light 10h 49m
Length of Day
9h 50m
Waxing Gibbous, 75% of the Moon is Illuminated
Jan 21
Waxing Gibbous
Jan 26
Full
Feb 3
Last Quarter
Feb 10
New
Feb 17
First Quarter

Hourly Weather History & Observations

Time (CST) Temp. Windchill Dew Point Humidity Pressure Visibility Wind Dir Wind Speed Gust Speed Precip Events Conditions
12:53 AM 16.0 °F 5.3 °F 10.0 °F 77% 30.46 in 10.0 mi North 8.1 mph - N/A   Clear
1:53 AM 15.1 °F 6.4 °F 10.0 °F 80% 30.44 in 10.0 mi North 5.8 mph - N/A   Clear
2:53 AM 14.0 °F 5.1 °F 9.0 °F 80% 30.45 in 10.0 mi NNW 5.8 mph - N/A   Partly Cloudy
3:53 AM 12.0 °F 4.1 °F 8.1 °F 84% 30.45 in 10.0 mi NW 4.6 mph - N/A   Clear
4:53 AM 12.0 °F - 7.0 °F 80% 30.45 in 10.0 mi Calm Calm - N/A   Clear
5:53 AM 14.0 °F 6.5 °F 9.0 °F 80% 30.45 in 10.0 mi WNW 4.6 mph - N/A   Clear
6:53 AM 16.0 °F 5.3 °F 10.0 °F 77% 30.45 in 10.0 mi NNW 8.1 mph - N/A   Mostly Cloudy
7:40 AM 15.8 °F 2.7 °F 8.6 °F 73% 30.42 in 10.0 mi North 11.5 mph - N/A   Overcast
7:53 AM 16.0 °F 4.4 °F 7.0 °F 68% 30.47 in 10.0 mi NNW 9.2 mph - N/A   Overcast
8:53 AM 16.0 °F 1.1 °F 3.9 °F 59% 30.48 in 10.0 mi North 15.0 mph - N/A   Overcast
9:53 AM 14.0 °F -0.8 °F 1.0 °F 56% 30.51 in 10.0 mi North 13.8 mph - N/A   Overcast
10:53 AM 16.0 °F 2.3 °F -2.0 °F 45% 30.51 in 10.0 mi NNW 12.7 mph - N/A   Overcast
11:53 AM 15.1 °F 1.1 °F -2.9 °F 45% 30.51 in 10.0 mi North 12.7 mph - N/A   Overcast
12:53 PM 15.1 °F 1.8 °F -5.1 °F 41% 30.48 in 10.0 mi North 11.5 mph - N/A   Overcast
1:53 PM 15.1 °F 6.4 °F -4.0 °F 43% 30.47 in 10.0 mi NNW 5.8 mph - N/A   Overcast
2:53 PM 16.0 °F 6.3 °F -2.9 °F 43% 30.46 in 10.0 mi NW 6.9 mph - N/A   Overcast
3:53 PM 16.0 °F 2.9 °F -4.0 °F 41% 30.45 in 10.0 mi WNW 11.5 mph - N/A   Overcast
4:53 PM 15.1 °F 2.5 °F -0.9 °F 49% 30.45 in 10.0 mi NNW 10.4 mph - N/A   Overcast
5:53 PM 15.1 °F 4.2 °F -0.0 °F 51% 30.44 in 10.0 mi North 8.1 mph - N/A   Overcast
6:53 PM 15.1 °F 5.2 °F 1.9 °F 56% 30.44 in 10.0 mi NNW 6.9 mph - N/A   Overcast
7:53 PM 15.1 °F 6.4 °F 1.0 °F 54% 30.45 in 10.0 mi North 5.8 mph - N/A   Overcast
8:53 PM 14.0 °F 3.9 °F 3.0 °F 62% 30.45 in 10.0 mi NNW 6.9 mph - 0.00 in Snow Light Snow
9:53 PM 14.0 °F 3.9 °F -0.0 °F 54% 30.46 in 10.0 mi North 6.9 mph - 0.00 in   Overcast
10:53 PM 14.0 °F 6.5 °F -2.0 °F 49% 30.45 in 10.0 mi North 4.6 mph - N/A   Overcast
11:53 PM 14.0 °F - -0.9 °F 52% 30.45 in 10.0 mi Calm Calm - 0.00 in Snow Light Snow